[[{"header":{"parameterUnit":"m.s-1","parameterCategory":1,"la1":30.2991,"la2":30.254,"lo1":-89.0895,"lo2":-89.0444,"dy":0.0017,"dx":0.0017,"nx":28,"ny":28,"refTime":"2025-08-08T03:00:00:Z","depth":0,"parameterNumber":2,"parameterNumberName":"U-component_of_WINDS"},"data":[0,0,0,0,0,0,0,0,0,0,0,0,0,0,0,0,0,0,0,0,0,0,0,0,0,0,0,0,0,0,0,0,0,0,0,0,0,0,0,0,0,0,0,0,0,0,0,0,0,0,0,0,0,0,0,0,0,0,-3.824,-3.8239,0,-3.8205,-3.8204,-3.8204,-3.8115,-3.8113,-3.8111,-3.8109,-3.8074,-3.8075,-3.8076,0,0,0,0,0,0,0,0,0,0,0,0,0,-3.8231,-3.8232,-3.824,-3.8239,-3.8239,-3.8205,-3.8204,-3.8204,-3.8115,-3.8113,-3.811,-3.8108,-3.8074,-3.8075,-3.8076,0,0,0,0,0,0,0,0,0,0,0,0,0,-3.822,-3.8232,-3.824,-3.819,-3.8186,-3.8205,-3.8204,-3.8204,-3.8115,-3.8113,-3.811,-3.8107,-3.8073,-3.8075,-3.8076,-3.814,0,0,-3.808,-3.808,0,0,0,0,0,0,0,0,-3.8221,-3.822,-3.8198,-3.8194,-3.8188,-3.8161,-3.8188,-3.8183,-3.8116,-3.8142,-3.8109,-3.8106,-3.8105,-3.8104,-3.8103,-3.8139,-3.8137,-3.808,-3.8081,-3.8081,-3.8081,0,0,0,0,0,0,0,-3.8221,-3.8221,-3.8226,-3.8198,-3.8192,-3.8171,-3.8166,-3.8187,-3.814,-3.814,-3.8133,-3.813,-3.8102,-3.8103,-3.8102,-3.8137,-3.808,-3.8081,-3.8082,-3.8082,-3.8226,-3.8229,0,0,0,0,0,0,-3.8229,-3.8222,-3.8227,-3.8225,-3.8198,-3.8173,-3.8168,-3.8173,-3.814,-3.8132,-3.8133,-3.8126,-3.8102,-3.8101,-3.81,-3.8176,-3.8081,-3.8082,-3.8083,-3.8223,-3.8227,-3.823,0,0,0,0,0,0,-3.8229,-3.823,-3.8228,-3.8222,-3.822,-3.8176,-3.8183,-3.8174,-3.8174,-3.8134,-3.8126,-3.8141,-3.8099,-3.8099,-3.8132,-3.8173,-3.8083,-3.8084,-3.822,-3.8224,-3.8229,-3.8326,0,0,0,0,0,0,-3.8229,-3.8231,-3.8254,-3.8223,-3.8221,-3.826,-3.8185,-3.8175,-3.8176,-3.8167,-3.814,-3.8133,-3.8097,-3.813,-3.8133,-3.8173,-3.8085,-3.8216,-3.8222,-3.8227,-3.8318,-3.8333,-3.8345,0,0,0,0,0,-3.8229,-3.8283,-3.8256,-3.8257,-3.8249,-3.8262,-3.8261,-3.8218,-3.818,-3.8203,-3.8179,-3.8134,-3.8168,-3.8135,-3.8137,-3.8178,-3.8213,-3.822,-3.8227,-3.8312,-3.833,-3.8345,0,0,0,0,0,0,-3.8319,-3.8277,-3.8247,-3.8292,-3.8282,-3.8247,-3.8275,-3.8238,-3.8238,-3.823,-3.8177,-3.8172,-3.8213,-3.8198,-3.8162,-3.824,-3.8183,-3.8191,-3.8248,-3.8264,-3.8278,-3.828,-3.8086,0,0,0,0,0,-3.8344,-3.8358,-3.8321,-3.8364,-3.836,-3.8319,-3.8323,-3.8292,-3.8279,-3.8274,-3.8251,-3.8241,-3.8249,-3.8256,-3.8261,-3.8316,-3.831,-3.8346,-3.8359,-3.837,-3.8378,-3.8408,-3.8424,-3.8253,-3.8253,-3.8253,0,0,-3.8396,-3.8375,-3.8387,-3.8381,-3.8369,-3.8386,-3.8316,-3.8336,-3.8348,-3.8277,-3.8307,-3.8291,-3.8276,-3.8321,-3.8339,-3.831,-3.8424,-3.8379,-3.8389,-3.839,-3.8417,-3.8433,-3.8448,-3.8258,-3.8257,-3.8256,0,0,-3.8499,-3.8484,-3.8519,-3.8509,-3.8492,-3.8465,-3.8474,-3.8446,-3.8432,-3.8462,-3.841,-3.8424,-3.8439,-3.8431,-3.8429,-3.8533,-3.8493,-3.8536,-3.8606,-3.8636,-3.865,-3.8662,-3.87,-3.8714,-3.8544,-3.8544,-3.8544,0,-3.8565,-3.8587,-3.8541,-3.8566,-3.8566,-3.8503,-3.8539,-3.8532,-3.8518,-3.852,-3.8487,-3.8507,-3.8492,-3.8536,-3.8561,-3.8561,-3.8571,-3.8539,-3.8652,-3.8663,-3.8673,-3.8709,-3.8724,-3.8549,-3.8549,-3.8548,-3.8548,0,-3.8671,-3.8687,-3.8718,-3.8707,-3.8711,-3.8741,-3.87,-3.871,-3.8679,-3.8656,-3.8688,-3.8669,-3.867,-3.8678,-3.8647,-3.8718,-3.8701,-3.8661,-3.8603,-3.8696,-3.8729,-3.8742,-3.8557,-3.8555,-3.8554,-3.8552,0,0,-3.8827,-3.8793,-3.8805,-3.88,-3.8779,-3.8791,-3.8819,-3.8821,-3.8831,-3.8824,-3.8848,-3.8864,-3.8827,-3.8825,-3.8794,-3.882,-3.8906,-3.8777,-3.8776,-3.8803,-3.8985,-3.9016,-3.9033,-3.8879,-3.8882,-3.8884,-3.8987,0,-3.8925,-3.8971,-3.8932,-3.8986,-3.9002,-3.8944,-3.8969,-3.8959,-3.8939,-3.895,-3.8928,-3.8941,-3.8891,-3.8889,-3.8913,-3.8891,-3.8942,-3.8882,-3.8902,-3.8903,-3.8908,-3.905,-3.9082,-3.918,-3.8999,-3.9002,-3.9003,0,-3.9045,-3.9045,-3.9101,-3.9078,-3.9083,-3.9106,-3.9107,-3.9118,-3.9106,-3.909,-3.909,-3.9051,-3.9079,-3.9023,-3.9061,-3.9022,-3.9027,-3.9018,-3.9021,-3.9021,-3.8959,-3.9055,-3.921,-3.9225,-3.9023,-3.9021,-3.902,0,-3.9156,-3.917,-3.9205,-3.9203,-3.9177,-3.9195,-3.9185,-3.9171,-3.9176,-3.9176,-3.9179,-3.9183,-3.9185,-3.9189,-3.9154,-3.9116,-3.9198,-3.9138,-3.9186,-3.9187,-3.9206,-3.9205,-3.9365,-3.9209,-3.9208,-3.9208,-3.9208,0,-3.927,-3.9306,-3.9255,-3.9277,-3.9317,-3.9273,-3.9314,-3.9298,-3.9287,-3.9306,-3.9256,-3.9275,-3.9226,-3.9241,-3.9213,-3.9251,-3.9252,-3.924,-3.9233,-3.9245,-3.9247,-3.9248,-3.9241,-3.9212,-3.9211,-3.921,-3.921,0,-3.94,-3.9367,-3.9402,-3.9375,-3.937,-3.9401,-3.9378,-3.9398,-3.9376,-3.9401,-3.9404,-3.9369,-3.9383,-3.9349,-3.9358,-3.934,-3.9393,-3.9374,-3.9397,-3.9392,-3.9443,-3.9439,-3.961,-3.9631,-3.946,-3.9462,-3.9463,0,-3.9475,-3.9502,-3.9479,-3.9488,-3.9481,-3.9497,-3.9502,-3.946,-3.9467,-3.9458,-3.948,-3.9491,-3.9497,-3.9523,-3.9499,-3.9507,-3.9488,-3.9548,-3.9489,-3.9502,-3.9491,-3.949,-3.9494,-3.956,-3.9562,-3.9564,-3.9565,0,-3.9612,-3.9595,-3.9604,-3.9609,-3.9616,-3.9618,-3.9615,-3.9626,-3.9582,-3.9593,-3.9608,-3.9613,-3.9623,-3.9635,-3.9638,-3.9629,-3.9591,-3.9584,-3.9596,-3.9609,-3.9622,-3.9617,-3.9431,-3.958,-3.9579,-3.9577,-3.9577,-3.9576,-3.9718,-3.974,-3.9728,-3.9741,-3.9735,-3.9735,-3.9753,-3.9734,-3.9745,-3.9751,-3.9726,-3.9747,-3.9737,-3.9737,-3.9732,-3.9749,-3.9722,-3.9738,-3.9743,-3.9748,-3.9757,-3.9619,-3.9749,-3.9748,-3.9748,-3.9747,-3.9747,0,-3.9854,-3.9844,-3.9856,-3.9855,-3.9866,-3.9829,-3.9826,-3.9837,-3.9856,-3.9851,-3.9858,-3.9877,-3.9889,-3.9867,-3.9876,-3.9894,-3.9876,-3.9897,-3.9896,-3.9895,-3.978,-3.9769,-3.9911,-3.9911,-3.9911,-3.9911,-3.9911,-3.9911,-3.9926,-3.9962,-3.9945,-3.9979,-3.9969,-3.9989,-3.9991,-3.9991,-3.9986,-4.0009,-4.0019,-4.0005,-3.9993,-4.0001,-4.0011,-4.0005,-4.0011,-4.0038,-4.0026,-3.9919,-3.9903,-3.9887,-3.9877,-4.004,-4.004,-4.014,-4.0141,-4.0141]},{"header":{"parameterUnit":"m.s-1","parameterCategory":1,"la1":30.2991,"la2":30.254,"lo1":-89.0895,"lo2":-89.0444,"dy":0.0017,"dx":0.0017,"nx":28,"ny":28,"refTime":"2025-08-08T03:00:00:Z","depth":0,"parameterNumber":3,"parameterNumberName":"V-component_of_WINDS"},"data":[0,0,0,0,0,0,0,0,0,0,0,0,0,0,0,0,0,0,0,0,0,0,0,0,0,0,0,0,0,0,0,0,0,0,0,0,0,0,0,0,0,0,0,0,0,0,0,0,0,0,0,0,0,0,0,0,0,0,-1.6859,-1.6859,0,-1.6868,-1.6868,-1.6868,-1.6824,-1.6823,-1.6822,-1.6821,-1.6829,-1.683,-1.6832,0,0,0,0,0,0,0,0,0,0,0,0,0,-1.6804,-1.6805,-1.6859,-1.6859,-1.6859,-1.6868,-1.6868,-1.6868,-1.6825,-1.6823,-1.6822,-1.682,-1.6828,-1.683,-1.6832,0,0,0,0,0,0,0,0,0,0,0,0,0,-1.6822,-1.6805,-1.6859,-1.6839,-1.6837,-1.6868,-1.6868,-1.6868,-1.6825,-1.6823,-1.6821,-1.6819,-1.6828,-1.683,-1.6832,-1.6882,0,0,-1.6838,-1.6839,0,0,0,0,0,0,0,0,-1.6821,-1.6824,-1.6842,-1.684,-1.6838,-1.6843,-1.6851,-1.6873,-1.6825,-1.683,-1.6821,-1.6818,-1.6835,-1.6836,-1.6842,-1.6883,-1.6883,-1.6838,-1.684,-1.6841,-1.6841,0,0,0,0,0,0,0,-1.682,-1.6823,-1.6863,-1.6842,-1.684,-1.6829,-1.6829,-1.6855,-1.6843,-1.6829,-1.6826,-1.6828,-1.6834,-1.684,-1.6842,-1.6883,-1.6838,-1.684,-1.6841,-1.6842,-1.6965,-1.6967,0,0,0,0,0,0,-1.6821,-1.6822,-1.6862,-1.6863,-1.6825,-1.6831,-1.6832,-1.6843,-1.6842,-1.684,-1.6829,-1.6825,-1.6838,-1.684,-1.6842,-1.6901,-1.6841,-1.6842,-1.6844,-1.6963,-1.6966,-1.6968,0,0,0,0,0,0,-1.682,-1.6825,-1.6862,-1.6842,-1.6846,-1.6834,-1.6848,-1.6845,-1.6851,-1.6842,-1.684,-1.6838,-1.6836,-1.6839,-1.6873,-1.6901,-1.6843,-1.6845,-1.6961,-1.6964,-1.6967,-1.7019,0,0,0,0,0,0,-1.6819,-1.6825,-1.6845,-1.6843,-1.6847,-1.6893,-1.6849,-1.6846,-1.6855,-1.685,-1.685,-1.6848,-1.6835,-1.687,-1.6875,-1.6902,-1.6847,-1.6958,-1.6962,-1.6966,-1.7015,-1.7024,-1.7031,0,0,0,0,0,-1.6817,-1.6859,-1.6846,-1.6851,-1.6871,-1.6895,-1.6897,-1.6881,-1.6857,-1.6877,-1.6871,-1.6848,-1.6897,-1.6874,-1.6879,-1.6908,-1.6956,-1.6961,-1.6965,-1.7011,-1.7022,-1.7031,0,0,0,0,0,0,-1.6864,-1.6858,-1.6844,-1.6886,-1.6891,-1.6887,-1.6911,-1.6893,-1.6904,-1.69,-1.6879,-1.6879,-1.6916,-1.6915,-1.6889,-1.6956,-1.6922,-1.6928,-1.6956,-1.6966,-1.6974,-1.6973,-1.6849,0,0,0,0,0,-1.688,-1.69,-1.6893,-1.6932,-1.6935,-1.6923,-1.6932,-1.6919,-1.6924,-1.6926,-1.6922,-1.6927,-1.6943,-1.6954,-1.6969,-1.7014,-1.7014,-1.7037,-1.7045,-1.7052,-1.7057,-1.7081,-1.7091,-1.6983,-1.6983,-1.6983,0,0,-1.6912,-1.6911,-1.6925,-1.6941,-1.6944,-1.6964,-1.6925,-1.6949,-1.6964,-1.6929,-1.696,-1.6958,-1.6962,-1.7002,-1.7019,-1.7002,-1.7086,-1.7057,-1.7063,-1.7064,-1.7086,-1.7097,-1.7106,-1.6986,-1.6985,-1.6985,0,0,-1.6981,-1.6983,-1.7015,-1.7018,-1.7022,-1.7013,-1.7021,-1.702,-1.7017,-1.7048,-1.7022,-1.704,-1.7068,-1.7072,-1.7077,-1.7147,-1.7127,-1.7152,-1.7195,-1.7218,-1.7227,-1.7234,-1.7259,-1.7268,-1.7158,-1.7158,-1.7158,0,-1.7021,-1.7051,-1.7033,-1.7059,-1.7066,-1.7036,-1.7068,-1.7072,-1.708,-1.7086,-1.7067,-1.7101,-1.7102,-1.7142,-1.7159,-1.7164,-1.7172,-1.7153,-1.7227,-1.7234,-1.7241,-1.7265,-1.7274,-1.7161,-1.7161,-1.716,-1.716,0,-1.71,-1.7121,-1.7146,-1.7155,-1.7166,-1.7194,-1.718,-1.7193,-1.7179,-1.7172,-1.7204,-1.7203,-1.7217,-1.7225,-1.7212,-1.7264,-1.7253,-1.7231,-1.7196,-1.7255,-1.7277,-1.7285,-1.7165,-1.7164,-1.7163,-1.7163,0,0,-1.72,-1.7198,-1.7208,-1.7211,-1.7213,-1.7229,-1.7256,-1.7269,-1.728,-1.7287,-1.7309,-1.7333,-1.7313,-1.7319,-1.7306,-1.7326,-1.7382,-1.7301,-1.7301,-1.7316,-1.7438,-1.7455,-1.7465,-1.7368,-1.737,-1.7371,-1.7438,0,-1.7267,-1.7313,-1.7298,-1.7345,-1.7364,-1.7335,-1.7358,-1.7362,-1.7356,-1.7371,-1.7365,-1.7383,-1.7354,-1.7358,-1.7377,-1.7371,-1.7406,-1.7366,-1.7388,-1.7389,-1.7388,-1.7477,-1.7495,-1.7558,-1.7446,-1.7447,-1.7448,0,-1.7353,-1.7363,-1.7412,-1.741,-1.7417,-1.7439,-1.7449,-1.7464,-1.7468,-1.7462,-1.7469,-1.7451,-1.7477,-1.7442,-1.7477,-1.7451,-1.7458,-1.7457,-1.7459,-1.746,-1.7422,-1.7481,-1.7577,-1.7587,-1.7462,-1.7461,-1.746,0,-1.742,-1.7446,-1.7479,-1.7483,-1.7481,-1.7497,-1.7497,-1.7498,-1.7507,-1.7516,-1.7522,-1.7534,-1.7541,-1.755,-1.7536,-1.7512,-1.7573,-1.7537,-1.7569,-1.7569,-1.7583,-1.7582,-1.7682,-1.7588,-1.7588,-1.7588,-1.7588,0,-1.7498,-1.7529,-1.7509,-1.7529,-1.7563,-1.7544,-1.7578,-1.7575,-1.7576,-1.7594,-1.757,-1.7588,-1.7568,-1.7584,-1.7572,-1.7603,-1.7606,-1.7602,-1.7599,-1.7604,-1.7605,-1.7609,-1.7605,-1.759,-1.759,-1.7589,-1.7589,0,-1.7579,-1.7567,-1.7601,-1.7597,-1.7596,-1.7621,-1.7618,-1.7636,-1.7628,-1.7652,-1.7656,-1.7645,-1.7662,-1.7648,-1.7665,-1.7658,-1.7698,-1.7689,-1.7697,-1.7695,-1.7727,-1.7724,-1.7833,-1.7847,-1.7744,-1.7745,-1.7746,0,-1.7629,-1.7653,-1.7651,-1.7662,-1.7663,-1.7681,-1.769,-1.7672,-1.7682,-1.7687,-1.7705,-1.772,-1.7731,-1.776,-1.7753,-1.7766,-1.7756,-1.7794,-1.7758,-1.7763,-1.7757,-1.7756,-1.7758,-1.7801,-1.7802,-1.7803,-1.7804,0,-1.7719,-1.7712,-1.7726,-1.7738,-1.775,-1.7758,-1.7764,-1.7775,-1.7756,-1.7769,-1.7787,-1.7795,-1.7813,-1.7828,-1.7838,-1.7838,-1.7818,-1.7815,-1.7823,-1.7829,-1.7833,-1.7831,-1.7717,-1.7813,-1.7812,-1.7811,-1.7811,-1.7811,-1.7787,-1.7806,-1.7807,-1.7824,-1.7827,-1.7833,-1.785,-1.7844,-1.7859,-1.7871,-1.786,-1.7881,-1.7883,-1.7895,-1.7897,-1.7912,-1.7897,-1.7908,-1.7911,-1.7914,-1.7919,-1.7831,-1.7914,-1.7914,-1.7914,-1.7913,-1.7913,0,-1.7875,-1.7875,-1.789,-1.79,-1.7912,-1.7893,-1.7899,-1.791,-1.7929,-1.7933,-1.7944,-1.7964,-1.7979,-1.7973,-1.7986,-1.8,-1.7991,-1.8003,-1.8002,-1.8002,-1.7932,-1.7924,-1.801,-1.801,-1.801,-1.801,-1.801,-1.801,-1.7923,-1.7954,-1.7947,-1.7979,-1.7978,-1.7999,-1.8004,-1.801,-1.8012,-1.8036,-1.8048,-1.8044,-1.8043,-1.8056,-1.8068,-1.8066,-1.8072,-1.8088,-1.8082,-1.8017,-1.8007,-1.7998,-1.799,-1.8089,-1.8089,-1.8151,-1.8152,-1.8152]}]]